{"data":{"norad_id":42915,"epoch":"2026-09-20T03:10:50.922048Z","epoch_age_seconds":57510,"freshness":"FRESH","line1":"1 42915U 17047A   26263.13253382 -.00000101  00000+0  00000+0 0  9997","line2":"2 42915   3.4859   4.9858 0013583 122.3279 268.0435  1.00272187 33307","mean_motion":1.00272187,"eccentricity":0.0013583,"inclination_deg":3.4859,"raan_deg":4.9858,"arg_perigee_deg":122.3279,"mean_anomaly_deg":268.0435,"bstar":0,"rev_number":3330,"period_min":1436.0911465908,"perigee_km":35729.210064025,"apogee_km":35843.754468724,"semimajor_km":42164.619266374,"source":"CELESTRAK","updated_at":"2026-09-20T09:00:35.255867Z"}}